EW9732 Weather Reports


time (UTC)temp
F
wind
direction
speed
knots
gust
knots
rain 1hr
in
rain 24hr
in
rain mn
in
humidity
%
barometer
mb
20240521043022 49 29 0.0 8.7 0.00 0.04 0.04 76 1004.4
20240521041535 49 241 1.7 12.2 0.00 0.04 0.04 77 1004.2
20240521040021 50 28 1.7 11.3 0.00 0.04 0.04 78 1004.3
20240521034520 50 32 2.6 7.8 0.01 0.04 0.04 77 1003.7
20240521033018 52 314 1.7 14.8 0.01 0.04 0.04 76 1002.9
20240521031520 53 231 3.5 10.4 0.01 0.04 0.04 72 1002.5
20240521030020 55 25 2.6 7.8 0.01 0.04 0.04 67 1001.5
20240521024519 58 43 0.0 0.0 0.00 0.03 0.03 69 1000.1
20240521023017 58 43 0.0 0.0 0.00 0.03 0.03 68 999.8
20240521021517 58 20 0.0 0.9 0.00 0.03 0.03 74 999.6
20240521020016 59 265 0.0 0.0 0.00 0.03 0.03 76 999.7
20240521014515 60 265 0.0 0.0 0.00 0.03 0.03 72 999.6
20240521013025 60 275 0.0 0.9 0.00 0.03 0.03 71 999.3
20240521011516 59 274 0.0 2.6 0.00 0.03 0.03 75 998.7
20240521010015 59 96 0.0 1.7 0.03 0.03 0.03 75 998.5
20240521004515 59 271 0.0 1.7 0.03 0.03 0.03 74 998.9
20240521003012 59 274 0.9 4.3 0.03 0.03 0.03 72 998.7
20240521001515 60 293 0.9 7.8 0.03 0.03 0.03 71 999.0
20240521000009 62 27 0.0 7.0 0.00 0.00 0.00 59 998.1
20240520234509 64 288 2.6 8.7 0.00 0.00 0.00 49 998.8
20240520233008 65 309 0.9 5.2 0.00 0.00 0.00 48 998.0
20240520231513 66 275 0.9 7.0 0.00 0.00 0.00 47 998.8
20240520230007 66 295 0.9 5.2 0.00 0.00 0.00 48 998.2
20240520224512 66 238 0.9 9.6 0.00 0.00 0.00 46 998.7
20240520223012 67 321 1.7 13.0 0.00 0.00 0.00 45 998.5
20240520221503 67 278 1.7 7.8 0.00 0.00 0.00 45 998.9
20240520220007 68 311 0.9 10.4 0.00 0.00 0.00 45 998.7
20240520214502 68 30 0.9 8.7 0.00 0.00 0.00 44 998.9
20240520213103 69 273 0.9 5.2 0.00 0.00 0.00 44 999.0
20240520211558 70 38 0.9 7.0 0.00 0.00 0.00 43 999.2
20240520210059 69 346 2.6 9.6 0.00 0.00 0.00 44 999.5
20240520204557 71 22 2.6 6.1 0.00 0.00 0.00 42 999.8
20240520203052 71 296 0.0 5.2 0.00 0.00 0.00 42 1000.0
20240520201551 72 268 1.7 6.1 0.00 0.00 0.00 41 1000.4
20240520200050 71 146 2.6 5.2 0.00 0.00 0.00 42 1001.0
20240520194557 69 74 2.6 7.8 0.00 0.00 0.00 45 1001.0
20240520193042 69 9 2.6 7.8 0.00 0.00 0.00 43 1001.4
20240520191538 67 89 0.9 7.0 0.00 0.00 0.00 45 1001.8
20240520190051 67 15 1.7 5.2 0.00 0.00 0.00 46 1002.1
20240520184532 66 96 2.6 7.0 0.00 0.00 0.00 46 1002.3
20240520183051 66 344 0.9 5.2 0.00 0.00 0.00 48 1002.7
20240520181525 64 136 0.0 7.8 0.00 0.00 0.00 48 1003.1
20240520180023 64 113 2.6 7.0 0.00 0.00 0.00 47 1003.2
20240520174520 63 19 2.6 7.0 0.00 0.00 0.00 49 1003.6
20240520173018 62 50 0.0 6.1 0.00 0.00 0.00 48 1003.7
20240520171518 62 67 0.0 4.3 0.00 0.00 0.00 50 1003.8
20240520170015 62 124 0.9 3.5 0.00 0.00 0.00 48 1004.1
20240520164527 61 329 0.0 4.3 0.00 0.00 0.00 51 1004.1
20240520163009 59 51 0.0 6.1 0.00 0.00 0.00 53 1004.4
20240520161507 58 85 1.7 5.2 0.00 0.00 0.00 54 1004.4
20240520160003 57 76 0.0 5.2 0.00 0.00 0.00 56 1004.8
20240520154503 56 134 0.9 4.3 0.00 0.00 0.00 56 1005.5
20240520153100 56 59 0.0 3.5 0.00 0.00 0.00 56 1005.9
20240520151558 55 266 0.0 2.6 0.00 0.00 0.00 57 1006.3
20240520150057 55 72 0.9 3.5 0.00 0.00 0.00 57 1006.5
20240520144600 54 63 0.0 1.7 0.00 0.00 0.00 57 1006.7
20240520143055 52 297 0.0 2.6 0.00 0.00 0.00 60 1006.9
20240520141557 52 11 0.0 0.0 0.00 0.00 0.00 59 1007.2
20240520140055 52 6 0.0 3.5 0.00 0.00 0.00 60 1007.4
20240520134553 51 300 0.0 4.3 0.00 0.00 0.00 61 1007.9
20240520133052 51 26 0.0 2.6 0.00 0.00 0.00 63 1008.0
20240520131604 50 136 0.0 3.5 0.00 0.00 0.00 66 1007.9
20240520130056 49 81 0.0 1.7 0.00 0.00 0.00 70 1007.6
20240520124548 48 24 0.0 0.0 0.00 0.00 0.00 71 1007.4
20240520123053 48 24 0.0 0.0 0.00 0.00 0.00 72 1007.3
20240520121545 48 25 0.0 2.6 0.00 0.00 0.00 72 1007.1
20240520120043 48 66 0.0 0.9 0.00 0.00 0.00 72 1007.0
20240520114540 48 89 0.0 1.7 0.00 0.00 0.00 72 1006.9
20240520113044 49 65 0.0 1.7 0.00 0.00 0.00 71 1006.6
20240520111535 50 34 0.0 4.3 0.00 0.00 0.00 69 1006.7
20240520110035 50 354 0.0 2.6 0.00 0.00 0.00 69 1006.3
20240520104531 51 42 0.0 3.5 0.00 0.00 0.00 67 1005.9
20240520103028 51 7 0.0 2.6 0.00 0.00 0.00 66 1005.5
20240520101527 51 13 0.0 0.0 0.00 0.00 0.00 66 1005.4
20240520100034 51 54 0.0 0.0 0.00 0.00 0.00 67 1005.3
20240520094526 50 86 0.0 0.0 0.00 0.00 0.00 69 1005.2
20240520093024 50 103 0.0 0.0 0.00 0.00 0.00 71 1005.1
20240520091522 50 103 0.0 0.0 0.00 0.00 0.00 71 1005.1
20240520090018 51 103 0.0 0.0 0.00 0.00 0.00 69 1004.9
20240520084517 52 103 0.0 0.0 0.00 0.00 0.00 67 1004.7
20240520083033 52 103 0.0 0.0 0.00 0.00 0.00 66 1004.8
20240520081515 52 123 0.0 0.0 0.00 0.00 0.00 67 1004.8
20240520080013 52 117 0.0 0.0 0.00 0.00 0.00 67 1004.8
20240520074511 52 136 0.0 0.0 0.00 0.00 0.00 66 1004.4
20240520073009 52 134 0.0 1.7 0.00 0.00 0.00 67 1004.0
20240520071519 53 107 0.0 0.0 0.00 0.00 0.00 65 1004.0
20240520070010 53 231 0.0 0.0 0.00 0.00 0.00 65 1003.9
20240520064505 53 108 0.0 0.0 0.00 0.00 0.00 64 1003.7
20240520063107 54 108 0.0 0.0 0.00 0.00 0.00 63 1003.9
20240520061600 54 108 0.0 0.0 0.00 0.00 0.00 61 1003.7
20240520060105 56 108 0.0 0.0 0.00 0.00 0.00 59 1003.5
20240520054607 57 113 0.0 0.0 0.00 0.00 0.00 56 1003.5
20240520053049 57 113 0.0 0.0 0.00 0.00 0.00 54 1003.4
20240520051553 59 113 0.0 0.9 0.00 0.00 0.00 52 1003.2
20240520050048 59 147 0.0 0.0 0.00 0.00 0.00 50 1003.2
20240520044548 60 214 0.0 1.7 0.00 0.00 0.00 49 1003.0